Le nostre stazioni meteo in Italia

Pubblicità
Il mio iltempo24.it
Brindisi, Italia (16320): Temperatura & dewpoint: 15.08.2019 14:00:00 - 21.08.2019 14:00:00 (CEST)Brindisi, Italia (16320): velocità del vento: 15.08.2019 14:00:00 - 21.08.2019 14:00:00 (CEST)Brindisi, Italia (16320): direzione del vento: 15.08.2019 14:00:00 - 21.08.2019 14:00:00 (CEST)Brindisi, Italia (16320): reduced air pressure: 15.08.2019 14:00:00 - 21.08.2019 14:00:00 (CEST)Brindisi, Italia (16320): visibility: 15.08.2019 14:00:00 - 21.08.2019 14:00:00 (CEST)Brindisi, Italia (16320): precipitazioni: 15.08.2019 14:00:00 - 21.08.2019 14:00:00 (CEST)
Data & Tempo tt [°C] td [°C] ff [km/h] ff [kn] dd ppp [hPa] vv [km] rr [mm]
21.08.2019 14:00:00 28,7 21,9 16 9 E 1016,4 10 -
21.08.2019 13:00:00 29,0 23,0 16 9 E - 10 -
21.08.2019 12:00:00 29,0 22,0 15 8 E - 10 -
21.08.2019 11:00:00 28,3 22,6 13 7 E 1017,4 10 0,0
21.08.2019 10:00:00 28,0 20,0 8 4 ENE - 10 -
21.08.2019 09:00:00 28,0 20,0 4 2 - - 10 -
21.08.2019 08:00:00 25,0 14,0 4 2 - - 10 -
21.08.2019 07:00:00 21,0 14,0 5 3 SO - 10 -
21.08.2019 06:00:00 21,0 15,0 8 4 SO - 10 -
21.08.2019 05:00:00 21,3 15,7 11 6 SO 1016,0 10 0,0
21.08.2019 04:00:00 22,0 18,0 5 3 SO - 10 -
21.08.2019 03:00:00 23,0 18,0 5 3 SSO - 10 -
21.08.2019 02:00:00 22,8 18,1 4 2 OSO 1016,3 - -
21.08.2019 01:00:00 25,0 19,0 5 3 SSE - 10 -
21.08.2019 00:00:00 25,0 19,0 4 2 S - 10 -
20.08.2019 23:00:00 26,0 20,0 5 3 SSE - 10 -
20.08.2019 22:00:00 26,0 20,0 8 4 SSE - 10 -
20.08.2019 21:00:00 26,0 20,0 8 4 E - 10 -
20.08.2019 20:00:00 27,0 20,0 4 2 NE - 10 -
20.08.2019 19:00:00 28,0 21,0 5 3 NNE - 10 -
20.08.2019 18:00:00 28,0 20,0 9 5 NE - 10 -
20.08.2019 17:00:00 29,0 21,0 13 7 NE - 10 -
20.08.2019 16:00:00 29,0 20,0 13 7 NE - 10 -
20.08.2019 15:00:00 29,0 19,0 11 6 NNE - 10 -
20.08.2019 14:00:00 28,0 20,0 11 6 NNE - 10 -
20.08.2019 13:00:00 28,0 21,0 9 5 NNE - 10 -
20.08.2019 12:00:00 28,0 20,0 9 5 NNE - 10 -
20.08.2019 11:00:00 27,6 21,3 9 5 NNE 1017,9 10 0,0
20.08.2019 10:00:00 28,0 19,0 11 6 N - 10 -
20.08.2019 09:00:00 27,0 19,0 4 2 - - 10 -
20.08.2019 08:00:00 24,0 18,0 4 2 OSO - 10 -
20.08.2019 07:00:00 21,0 15,0 5 3 O - 10 -
20.08.2019 06:00:00 21,0 15,0 8 4 OSO - 10 -
20.08.2019 05:00:00 20,9 14,7 5 3 O 1016,5 10 0,0
20.08.2019 04:00:00 21,0 15,0 8 4 SO - 10 -
20.08.2019 03:00:00 21,0 16,0 9 5 SO - 10 -
20.08.2019 02:00:00 23,0 17,0 9 5 SO - 10 -
20.08.2019 01:00:00 22,0 16,0 9 5 OSO - 10 -
20.08.2019 00:00:00 24,0 18,0 4 2 OSO - 10 -
19.08.2019 23:00:00 25,1 17,8 5 3 SSE 1016,7 10 0,0
19.08.2019 22:00:00 26,0 19,0 4 2 SSE - 10 -
19.08.2019 21:00:00 26,0 19,0 5 3 SSE - 10 -
19.08.2019 20:00:00 26,9 17,9 8 4 ESE 1016,2 10 -
19.08.2019 19:00:00 28,0 19,0 9 5 ENE - 10 -
19.08.2019 18:00:00 28,0 19,0 13 7 E - 10 -
19.08.2019 17:00:00 29,0 19,0 13 7 E - 10 -
19.08.2019 16:00:00 29,0 19,0 15 8 ENE - 10 -
19.08.2019 15:00:00 29,0 18,0 15 8 E - 10 -
19.08.2019 14:00:00 28,6 17,4 16 9 ENE 1016,8 10 -
19.08.2019 13:00:00 28,0 20,0 15 8 ENE - 10 -
19.08.2019 12:00:00 28,0 19,0 13 7 ENE - 10 -
19.08.2019 11:00:00 27,4 18,7 11 6 ENE 1016,8 10 0,0
19.08.2019 10:00:00 27,0 17,0 9 5 NE - 10 -
19.08.2019 09:00:00 27,0 10,0 5 3 ESE - 10 -
19.08.2019 08:00:00 24,1 13,0 5 3 SO 1016,4 10 -
19.08.2019 07:00:00 19,0 13,0 9 5 SO - 10 -
19.08.2019 06:00:00 19,0 13,0 9 5 SO - 10 -
19.08.2019 05:00:00 18,9 13,2 9 5 SO 1015,8 10 0,0
19.08.2019 04:00:00 20,0 14,0 9 5 OSO - 10 -
19.08.2019 03:00:00 20,0 16,0 13 7 SO - 10 -
19.08.2019 02:00:00 20,7 17,5 8 4 OSO 1015,8 10 -
19.08.2019 01:00:00 22,0 18,0 11 6 OSO - 10 -
19.08.2019 00:00:00 23,0 18,0 4 2 SO - 10 -
18.08.2019 23:00:00 22,8 17,5 4 2 O 1015,9 10 0,0
18.08.2019 22:00:00 24,0 18,0 4 2 ONO - 10 -
18.08.2019 21:00:00 25,0 18,0 2 1 - - 10 -
18.08.2019 20:00:00 25,3 17,8 8 4 NNE 1015,7 10 -
18.08.2019 19:00:00 27,0 19,0 11 6 NE - 10 -
18.08.2019 18:00:00 27,0 19,0 16 9 NNE - 10 -
18.08.2019 17:00:00 27,4 18,2 15 8 NNE 1015,8 10 0,0
18.08.2019 16:00:00 28,0 20,0 15 8 NNE - 10 -
18.08.2019 15:00:00 28,0 21,0 16 9 N - 10 -
18.08.2019 14:00:00 27,3 21,2 16 9 N 1016,6 10 -
18.08.2019 13:00:00 28,0 21,0 16 9 N - 10 -
18.08.2019 12:00:00 28,0 20,0 21 11 N - 10 -
18.08.2019 11:00:00 27,3 19,6 21 11 N 1016,5 10 0,0
18.08.2019 10:00:00 27,0 20,0 21 11 N - 10 -
18.08.2019 09:00:00 26,0 20,0 22 12 N - 10 -
18.08.2019 08:00:00 25,4 18,8 18 10 NNO 1015,8 10 -
18.08.2019 07:00:00 24,0 19,0 15 8 NNO - 10 -
18.08.2019 06:00:00 24,0 19,0 13 7 NO - 10 -
18.08.2019 05:00:00 23,6 19,0 9 5 ONO 1015,2 10 0,0
18.08.2019 04:00:00 22,0 17,0 13 7 ONO - 10 -
18.08.2019 03:00:00 24,0 18,0 13 7 NO - 10 -
18.08.2019 02:00:00 24,5 17,2 11 6 NNO 1015,5 10 -
18.08.2019 01:00:00 25,0 17,0 11 6 NNO - 10 -
18.08.2019 00:00:00 25,0 17,0 15 8 NNO - 10 -
17.08.2019 23:00:00 25,2 16,8 16 9 NNO 1015,5 10 0,0
17.08.2019 22:00:00 25,0 17,0 16 9 NNO - 10 -
17.08.2019 21:00:00 25,0 16,0 15 8 NNO - 10 -
17.08.2019 20:00:00 25,6 16,0 21 11 N 1015,2 10 -
17.08.2019 19:00:00 26,0 19,0 21 11 NNO - 10 -
17.08.2019 18:00:00 27,0 18,0 18 10 NNO - 10 -
17.08.2019 17:00:00 27,4 18,3 18 10 N 1015,5 10 0,0
17.08.2019 16:00:00 28,0 19,0 18 10 NNO - 10 -
17.08.2019 15:00:00 28,0 20,0 22 12 NNO - 10 -
17.08.2019 14:00:00 27,8 19,4 22 12 NNO 1015,8 10 -
17.08.2019 13:00:00 27,0 19,0 22 12 NNO - 10 -
17.08.2019 12:00:00 28,0 19,0 24 13 NNO - 10 -
17.08.2019 11:00:00 26,6 20,0 24 13 NO 1016,3 10 0,0
17.08.2019 10:00:00 26,0 18,0 21 11 NNO - 10 -
17.08.2019 09:00:00 26,0 18,0 18 10 NNO - 10 -
17.08.2019 08:00:00 25,8 18,3 18 10 NNO 1015,4 10 -
17.08.2019 07:00:00 25,0 18,0 16 9 NNO - 10 -
17.08.2019 06:00:00 25,0 17,0 16 9 NNO - 10 -
17.08.2019 05:00:00 24,6 16,2 21 11 NNO 1014,7 10 0,0
17.08.2019 04:00:00 25,0 16,0 21 11 NNO - 10 -
17.08.2019 03:00:00 25,0 19,0 16 9 NNO - 10 -
17.08.2019 02:00:00 24,7 17,8 18 10 NNO 1015,0 10 -
17.08.2019 01:00:00 25,0 17,0 21 11 NNO - 10 -
17.08.2019 00:00:00 23,0 16,0 11 6 O - 10 -
16.08.2019 23:00:00 22,9 15,6 11 6 OSO 1014,8 10 0,0
16.08.2019 22:00:00 25,0 16,0 16 9 NO - 10 -
16.08.2019 21:00:00 25,0 17,0 13 7 NO - 10 -
16.08.2019 20:00:00 25,3 17,3 13 7 NNO 1013,8 10 -
16.08.2019 19:00:00 26,0 18,0 18 10 N - 10 -
16.08.2019 18:00:00 27,0 19,0 26 14 N - 10 -
16.08.2019 17:00:00 27,0 17,7 22 12 N 1013,5 10 0,0
16.08.2019 16:00:00 28,0 16,0 22 12 N - 10 -
16.08.2019 15:00:00 28,0 16,0 22 12 NNO - 10 -
16.08.2019 14:00:00 27,8 15,5 22 12 N 1014,0 10 -
16.08.2019 13:00:00 28,0 17,0 21 11 NNO - 10 -
16.08.2019 12:00:00 28,0 17,0 22 12 NNO - 10 -
16.08.2019 11:00:00 27,5 16,0 24 13 NNO 1013,9 10 0,0
16.08.2019 10:00:00 27,0 16,0 22 12 NNO - 10 -
16.08.2019 09:00:00 26,0 19,0 24 13 NO - 10 -
16.08.2019 08:00:00 25,1 17,9 22 12 NO 1013,4 10 -
16.08.2019 07:00:00 23,0 17,0 16 9 ONO - 10 -
16.08.2019 06:00:00 22,0 15,0 15 8 ONO - 10 -
16.08.2019 05:00:00 22,5 16,0 16 9 O 1012,6 10 0,0
16.08.2019 04:00:00 - - - - - - - -
16.08.2019 03:00:00 23,0 16,0 16 9 O - 10 -
16.08.2019 02:00:00 24,5 16,9 21 11 NO 1012,9 10 -
16.08.2019 01:00:00 25,0 17,0 21 11 NO - 10 -
16.08.2019 00:00:00 25,0 17,0 16 9 NNO - 10 -
15.08.2019 23:00:00 24,7 15,7 16 9 NNO 1013,6 10 0,0
15.08.2019 22:00:00 25,0 17,0 22 12 NNO - 10 -
15.08.2019 21:00:00 25,0 16,0 21 11 NNO - 10 -
15.08.2019 20:00:00 25,2 14,6 22 12 NO 1012,4 10 -
15.08.2019 19:00:00 26,0 16,0 26 14 NNO - 10 -
15.08.2019 18:00:00 26,0 17,0 29 16 NNO - 10 -
15.08.2019 17:00:00 27,1 17,4 24 13 NNO 1012,0 10 0,0
15.08.2019 16:00:00 27,0 18,0 28 15 NO - 10 -
15.08.2019 15:00:00 27,0 18,0 28 15 NNO - 10 -
15.08.2019 14:00:00 27,8 16,7 26 14 NO 1012,1 10 -

tt = Temperatura
td = dewpoint
ff = velocità del vento
dd = direzione del vento
ppp = reduced air pressure
vv = visibility
rr = precipitazioni

Stazioni seguenti

WeatherPro
AMSI
MeteoEarth